Chatham, MA

7:01 PM EDT on May 24, 2017 (GMT -0400)
Chatham Municipal

Weather History for KCQX - January, 2014

Change the Weather History Date:

Friday, January 24, 2014

  Actual Average Record
Temperature  
Mean Temperature 12 °F -  
Max Temperature 17 °F 33 °F 57 °F (1999)
Min Temperature 7 °F 21 °F 7 °F (2014)
Degree Days  
Heating Degree Days 53    
Moisture  
Dew Point -3 °F    
Average Humidity 52    
Maximum Humidity 61    
Minimum Humidity 37    
Precipitation  
Precipitation 0.00 in - - ()
Sea Level Pressure  
Sea Level Pressure 30.20 in    
Wind  
Wind Speed 7 mph (West)    
Max Wind Speed 12 mph    
Max Gust Speed 23 mph    
Visibility 10 miles    
Events      
Averages and records for this station are not official NWS values.
T = Trace of Precipitation, MM = Missing Value Source: NWS Daily Summary

Daily Weather History Graph

Daily Weather History Graph

Search for Another Location

Airport or City:

Trip Planner

Search our weather history database for the weather conditions in past years. The results will help you decide how hot, cold, wet, or windy it might be!

Date:

Astronomy

Jan. 24, 2014 Rise Set
Actual Time 6:59 AM EST 4:45 PM EST
Civil Twilight 6:29 AM EST 5:15 PM EST
Nautical Twilight 5:55 AM EST 5:49 PM EST
Astronomical Twilight 5:22 AM EST 6:22 PM EST
Moon 12:21 AM EST 11:02 AM EST
Length of Visible Light 10h 46m
Length of Day
9h 46m
Last Quarter, 45% of the Moon is Illuminated
Jan 24
Last Quarter
Jan 30
New
Feb 6
First Quarter
Feb 14
Full
Feb 22
Last Quarter

Hourly Weather History & Observations

Time (EST) Temp. Windchill Dew Point Humidity Pressure Visibility Wind Dir Wind Speed Gust Speed Precip Events Conditions
12:52 AM 10.9 °F -0.8 °F -2.9 °F 54% 30.17 in 10.0 mi West 8.1 mph - N/A   Clear
1:52 AM 10.9 °F 0.2 °F -4.0 °F 51% 30.17 in 10.0 mi West 6.9 mph - N/A   Clear
2:52 AM 10.0 °F 0.4 °F -2.9 °F 56% 30.18 in 10.0 mi West 5.8 mph - N/A   Clear
3:52 AM 9.0 °F -0.9 °F -2.0 °F 61% 30.18 in 10.0 mi West 5.8 mph - N/A   Clear
4:52 AM 9.0 °F -0.9 °F -2.9 °F 59% 30.19 in 10.0 mi West 5.8 mph - N/A   Clear
5:52 AM 8.1 °F -2.0 °F -2.9 °F 61% 30.21 in 10.0 mi West 5.8 mph - N/A   Clear
6:52 AM 7.0 °F -4.5 °F -4.0 °F 61% 30.23 in 10.0 mi West 6.9 mph - N/A   Clear
7:52 AM 9.0 °F -2.2 °F -2.0 °F 61% 30.24 in 10.0 mi West 6.9 mph - N/A   Clear
8:52 AM 12.0 °F -2.0 °F -0.9 °F 56% 30.25 in 10.0 mi WNW 11.5 mph 18.4 mph N/A   Clear
9:52 AM 14.0 °F 0.5 °F -0.0 °F 54% 30.25 in 10.0 mi West 11.5 mph 23.0 mph N/A   Clear
10:52 AM 15.1 °F 3.3 °F 1.0 °F 54% 30.24 in 10.0 mi WNW 9.2 mph 18.4 mph N/A   Partly Cloudy
11:52 AM 16.0 °F 3.6 °F -0.0 °F 49% 30.21 in 10.0 mi WNW 10.4 mph 19.6 mph N/A   Clear
12:52 PM 17.1 °F 5.8 °F -2.0 °F 43% 30.19 in 10.0 mi West 9.2 mph 21.9 mph N/A   Clear
1:52 PM 17.1 °F 5.0 °F -4.0 °F 39% 30.19 in 10.0 mi West 10.4 mph 18.4 mph N/A   Clear
2:52 PM 17.1 °F 7.6 °F -5.1 °F 37% 30.19 in 10.0 mi West 6.9 mph 16.1 mph N/A   Clear
3:52 PM 17.1 °F 6.6 °F -5.1 °F 37% 30.20 in 10.0 mi WSW 8.1 mph - N/A   Clear
4:52 PM 15.1 °F 7.7 °F -6.0 °F 39% 30.19 in 10.0 mi West 4.6 mph - N/A   Clear
5:52 PM 10.0 °F 1.8 °F -5.1 °F 51% 30.20 in 10.0 mi WSW 4.6 mph - N/A   Clear
6:52 PM 10.9 °F 4.7 °F -4.0 °F 51% 30.22 in 10.0 mi West 3.5 mph - N/A   Clear
7:52 PM 10.0 °F 1.8 °F -4.0 °F 53% 30.22 in 10.0 mi West 4.6 mph - N/A   Clear
8:52 PM 10.9 °F 2.9 °F -4.0 °F 51% 30.21 in 10.0 mi West 4.6 mph - N/A   Clear
9:52 PM 10.9 °F - -4.0 °F 51% 30.19 in 10.0 mi Calm Calm - N/A   Clear
10:52 PM 12.9 °F - -2.9 °F 49% 30.17 in 10.0 mi Calm Calm - N/A   Partly Cloudy
11:52 PM 10.0 °F - -0.9 °F 61% 30.13 in 10.0 mi Calm Calm - N/A   Mostly Cloudy